^^
Meteo Knjazevac Station Historical Data
Daily Summary for March 11, 2021 Units:  Metric    English   Both
Daily Weekly Monthly Yearly Custom
  High: Low: Average:
Temperature: 7.9 °C 7.1 °C 7.4 °C
Dew Point: 7.6 °C 6.8 °C 7.3 °C
Humidity: 99% 98% 99%
Wind Speed: 14.5km/h 3.2km/h 9.7km/h
Wind Gust: 30.6km/h - -
Wind- - SSE
Pressure: 1022.9 hPa 1021.2 hPa -
Precipitation: 0.25 mm    
Historical Graphs
 
 
Tabular Data for March 11, 2021
Time Temperature Dew Point Pressure Wind Wind Speed Wind Gust Humidity Rainfall Rate (Hourly) solar Conditions
00:00 7.9 °C 7.6 °C 1022.9 hPa North 8 km/h 22.5 km/h 98% 0 mm 0 W/m2
00:10 7.9 °C 7.6 °C 1022.9 hPa North 9.7 km/h 20.9 km/h 98% 0 mm 0 W/m2
00:20 7.8 °C 7.5 °C 1022.9 hPa North 9.7 km/h 22.5 km/h 98% 0 mm 0 W/m2
00:30 7.7 °C 7.4 °C 1022.6 hPa North 9.7 km/h 19.3 km/h 98% 0 mm 0 W/m2
00:40 7.6 °C 7.4 °C 1022.6 hPa North 9.7 km/h 19.3 km/h 99% 0 mm 0 W/m2
00:50 7.6 °C 7.4 °C 1022.6 hPa North 8 km/h 19.3 km/h 99% 0 mm 0 W/m2
01:00 7.6 °C 7.4 °C 1022.2 hPa North 11.3 km/h 22.5 km/h 99% 0 mm 0 W/m2
01:10 7.5 °C 7.3 °C 1022.2 hPa North 9.7 km/h 22.5 km/h 99% 0 mm 0 W/m2
01:20 7.4 °C 7.3 °C 1022.2 hPa North 8 km/h 22.5 km/h 99% 0 mm 0 W/m2
01:30 7.4 °C 7.3 °C 1022.2 hPa North 3.2 km/h 20.9 km/h 99% 0 mm 0 W/m2
01:40 7.4 °C 7.3 °C 1022.2 hPa North 4.8 km/h 20.9 km/h 99% 0 mm 0 W/m2
01:50 7.4 °C 7.3 °C 1022.2 hPa North 8 km/h 20.9 km/h 99% 0 mm 0 W/m2
02:00 7.4 °C 7.3 °C 1021.9 hPa North 9.7 km/h 25.7 km/h 99% 0 mm 0 W/m2
02:10 7.4 °C 7.3 °C 1021.9 hPa North 11.3 km/h 25.7 km/h 99% 0 mm 0 W/m2
02:20 7.4 °C 7.3 °C 1021.9 hPa North 12.9 km/h 24.1 km/h 99% 0 mm 0 W/m2
02:30 7.5 °C 7.3 °C 1021.9 hPa North 12.9 km/h 30.6 km/h 99% 0 mm 0 W/m2
02:40 7.5 °C 7.3 °C 1021.6 hPa North 11.3 km/h 30.6 km/h 99% 0 mm 0 W/m2
02:50 7.5 °C 7.3 °C 1021.9 hPa North 9.7 km/h 22.5 km/h 99% 0 mm 0 W/m2
03:00 7.4 °C 7.3 °C 1021.9 hPa North 9.7 km/h 20.9 km/h 99% 0 mm 0 W/m2
03:10 7.4 °C 7.3 °C 1021.9 hPa North 14.5 km/h 29 km/h 99% 0 mm 0 W/m2
03:20 7.3 °C 7.2 °C 1021.9 hPa North 9.7 km/h 24.1 km/h 99% 0 mm 0 W/m2
03:30 7.3 °C 7.2 °C 1021.6 hPa North 9.7 km/h 24.1 km/h 99% 0 mm 0 W/m2
03:40 7.2 °C 7.1 °C 1021.9 hPa North 9.7 km/h 24.1 km/h 99% 0 mm 0 W/m2
03:50 7.2 °C 7.1 °C 1021.6 hPa North 8 km/h 22.5 km/h 99% 0 mm 0 W/m2
04:00 7.2 °C 7.1 °C 1021.6 hPa North 9.7 km/h 27.4 km/h 99% 0 mm 0 W/m2
04:10 7.2 °C 7.1 °C 1021.6 hPa North 9.7 km/h 20.9 km/h 99% 0 mm 0 W/m2
04:20 7.2 °C 7.1 °C 1021.6 hPa North 9.7 km/h 20.9 km/h 99% 0 mm 0 W/m2
04:30 7.2 °C 7 °C 1021.6 hPa North 9.7 km/h 22.5 km/h 99% 0 mm 0 W/m2
04:40 7.1 °C 6.9 °C 1021.6 hPa North 11.3 km/h 20.9 km/h 99% 0 mm 0 W/m2
04:50 7.1 °C 6.8 °C 1021.2 hPa North 9.7 km/h 24.1 km/h 98% 0 mm 0 W/m2
Knjazevac, Serbia
Compliments of Weather Underground - 2 mb